Regional Weather Roundup
Issued by NWS Cleveland, OH

Home | Current Version | Previous Version | Graphics & Text | Print | Product List | Glossary On
Versions: 1 2 3 4 5 6 7 8 9 10 11 12 13 14 15 16 17 18 19 20 21 22 23 24 25 26 27 28 29 30 31 32 33 34 35 36 37 38 39 40 41 42 43 44 45 46 47 48 49 50
000
ASUS41 KCLE 170510
RWRCLE
OHIO REGIONAL WEATHER ROUNDUP
NATIONAL WEATHER SERVICE WILMINGTON, OH
100 AM EDT WED SEP 17 2014

NOTE: "FAIR" INDICATES FEW OR NO CLOUDS BELOW 12,000 FEET WITH NO
SIGNIFICANT WEATHER AND/OR OBSTRUCTIONS TO VISIBILITY.

OHZ001>008-015>018-024>027-034-035-043-044-170600-
   NORTHWEST OHIO

CITY           SKY/WX    TMP DP  RH WIND       PRES   REMARKS
DEFIANCE       CLEAR     48  45  89 CALM      30.10F
FINDLAY        CLEAR     50  46  86 SW3       30.09S
TOLEDO EXPRESS CLEAR     50  45  83 CALM      30.09F
TOLEDO METCALF CLEAR     48  43  82 W6        30.10R
LIMA           CLEAR     47  44  90 CALM      30.10S
$$

OHZ009>014-019>023-028>033-038-089-170600-
   NORTHEAST OHIO

CITY           SKY/WX    TMP DP  RH WIND       PRES   REMARKS
CLE-HOPKINS    CLEAR     49  46  90 S3        30.10S
CLE-LAKEFRONT  CLEAR     53  48  83 SE9       30.07S
CUY CO. ARPT   NOT AVBL
LORAIN-ELYRIA  CLEAR     51  47  86 CALM      30.09S FOG
ASHTABULA      CLEAR     46  44  93 CALM      30.09S
AKRON-CANTON   CLEAR     51  45  79 CALM      30.09S
WOOSTER        FOG       45  42  89 CALM      30.10S VSB 1/4
MANSFIELD      CLEAR     48  48 100 CALM      30.10S
YOUNGSTOWN     PTCLDY    47  46  97 CALM      30.09S
$$

OHZ042-051>053-060>062-070>072-077>081-170600-
  SOUTHWEST OHIO

CITY           SKY/WX    TMP DP  RH WIND       PRES   REMARKS
CINC-COVINGTON PTCLDY    56  49  77 CALM      30.10F
CINC-LUNKEN    CLEAR     50  49  96 CALM      30.12S
HAMILTON       MOCLDY    53  52  96 CALM      30.11F
DAYTON         CLEAR     50  47  89 CALM      30.11F
WRIGHT-PAT AFB CLEAR     48  46  93 N2        30.11S
DAYTON GENERAL CLEAR     51  49  92 CALM      30.10F
WILMINGTON     CLEAR     50  47  89 CALM      30.10S
$$

OHZ036-037-039>041-045>050-054>059-063>069-073>076-082>088-170600-
  CENTRAL AND SOUTHEAST OHIO

CITY           SKY/WX    TMP DP  RH WIND       PRES   REMARKS
COLUMBUS       CLEAR     51  47  86 CALM      30.09F
OSU AIRPORT    CLEAR     50  46  86 CALM      30.10S
BOLTON FIELD   CLEAR     46  46 100 NW5       30.10S FOG
RICKENBACK AFB CLEAR     46  46  97 CALM      30.09F FOG
NEWARK         FOG       45  44  97 CALM      30.10S VSB 1/4
MARION         FAIR      46  43  89 SE3       30.11R
LANCASTER      FOG       45  43  93 CALM      30.10F VSB 3/4
ZANESVILLE     CLEAR     49  45  86 CALM      30.09F
NEW PHILLY     PTCLDY    50  48  93 CALM      30.10S
$$


USA.gov is the U.S. government's official web portal to all federal, state and local government web resources and services.